Regional Weather Roundup
Issued by NWS

Home | Current Version | Previous Version | Text Only | Print | Product List | Glossary Off
Versions: 1 2 3 4 5 6 7 8 9 10 11 12 13 14 15 16 17 18 19 20 21 22 23 24 25 26 27 28 29 30 31 32 33 34 35 36 37 38 39 40 41 42 43 44 45 46 47 48 49 50

000
ASUS43 KMKX 292221
RWRWI

WISCONSIN REGIONAL WEATHER ROUNDUP
NATIONAL WEATHER SERVICE MILWAUKEE/SULLIVAN WI
500 PM CDT MON MAY 29 2017

NOTE: "FAIR" INDICATES FEW OR NO CLOUDS BELOW 12,000 FEET WITH NO
SIGNIFICANT WEATHER AND/OR OBSTRUCTIONS TO VISIBILITY.

WIZ001-002-006>008-014>016-023>028-292300-
NORTHWEST WISCONSIN

CITY           SKY/WX    TMP DP  RH WIND       PRES   REMARKS
SUPERIOR ARPT  NOT AVBL
ASHLAND        CLOUDY    63  48  58 NW23G29   29.71R
HAYWARD        LGT RAIN  60  49  66 W9G17     29.74R
SIREN          CLOUDY    60  51  71 W6        29.77S
CUMBERLAND     HVY RAIN  54  46  76 W17G30    29.78S VSB 3/4
RICE LAKE      PTSUNNY   60  49  66 W13G21    29.79R
CHETEK         PTSUNNY   58  50  75 W9G17     29.78R
LADYSMITH      LGT RAIN  55  50  83 W9        29.77S
EAU CLAIRE     LGT RAIN  58  48  69 NW16G25   29.79R
MENOMONIE      CLOUDY    62  48  61 NW7       29.79S
NEW RICHMOND   PTSUNNY   63  45  52 NW13G25   29.79F
OSCEOLA        CLOUDY    62  47  56 W14G23    29.82S
$$

WIZ003>005-009-010-017-018-292300-
NORTH CENTRAL WISCONSIN

CITY           SKY/WX    TMP DP  RH WIND       PRES   REMARKS
MANITOWISH WTR PTSUNNY   55  55  99 W9        29.71S
ARBOR VITAE    HVY RAIN  57  52  82 NW14      29.71R
WOODRUFF       HVY RAIN  57  52  82 NW14      29.71R
RHINELANDER    LGT RAIN  54  50  86 W7        29.73R FOG
EAGLE RIVER    PTSUNNY   60  45  58 W8G18     29.69F
LAND O LAKES   PTSUNNY   56  52  86 W5        29.71S
PHILLIPS       PTSUNNY   56  52  89 W7        29.73S
TOMAHAWK       PTSUNNY   61  46  58 W17G24    29.73S
MEDFORD        CLOUDY    59  47  66 W13G23    29.75F
MERRILL        CLOUDY    56  52  84 W7        29.74F
$$

WIZ029-030-035-036-043>047-292300-
CENTRAL WISCONSIN

CITY           SKY/WX    TMP DP  RH WIND       PRES   REMARKS
WAUSAU         PTSUNNY   57  44  62 NW18      29.75R
MOSINEE        NOT AVBL
MARSHFIELD     LGT RAIN  57  48  72 W14G25    29.77F
STEVENS POINT  PTSUNNY   58  48  67 SW15G21   29.78S
WAUPACA        CLOUDY    62  48  60 W13G18    29.78S
WAUTOMA        LGT RAIN  56  51  84 W14G23    29.82
WISC RAPIDS    CLOUDY    60  51  72 W13G20    29.80S
CAMP DOUGLAS   TSTM      59  48  67 W21G28    29.82R
$$

WIZ011>013-019>022-031-037>040-048>050-292300-
NORTHEAST WISCONSIN

CITY           SKY/WX    TMP DP  RH WIND       PRES   REMARKS
ANTIGO         CLOUDY    57  49  74 W13       29.74F
SHAWANO        PTSUNNY   67  49  51 W14G23    29.73S
OCONTO         CLOUDY    61  50  66 W9G16     29.73S
STURGEON BAY   PTSUNNY   61  49  64 W16       29.74R
GREEN BAY      SUNNY     67  51  56 SW13      29.74F
MANITOWOC      CLOUDY    66  45  46 W13G29    29.76S
APPLETON       PTSUNNY   64  43  45 W17G24    29.75F
CLINTONVILLE   PTSUNNY   61  46  59 W13G21    29.76R
OSHKOSH        PTSUNNY   66  46  48 W8        29.76S
$$

WIZ032>034-041-042-053>061-292300-
SOUTHWEST WISCONSIN

CITY           SKY/WX    TMP DP  RH WIND       PRES   REMARKS
LA CROSSE      CLOUDY    64  53  67 W12       29.82F
SPARTA         LGT RAIN  62  51  66 W5        29.82S
VIROQUA        CLOUDY    58  49  72 N15G33    29.84R
BOSCOBEL       MOSUNNY   71  44  37 W17G25    29.82F
PRAIRIE DU CHI CLOUDY    67  43  40 W13G21    29.84R
PLATTEVILLE    SUNNY     68  47  46 W15G22    29.85S
$$

WIZ056-057-062-063-064-067-068-292300-
SOUTH CENTRAL WISCONSIN

CITY           SKY/WX    TMP DP  RH WIND       PRES   REMARKS
REEDSBURG      CLOUDY    60  50  69 NW6       29.82S
BARABOO/DELLS  DRIZZLE   59  49  69 W9        29.82R
LONE ROCK      PTSUNNY   69  43  38 W20G30    29.82S
MINERAL POINT  PTSUNNY   68  43  40 W17G26    29.84S
MADISON        PTSUNNY   66  45  46 W12       29.81S
MIDDLETON      CLOUDY    66  46  48 W16G22    29.83S
WATERTOWN      MOSUNNY   68  46  43 W13G22    29.80F
MONROE         MOSUNNY   68  41  37 W25G31    29.84S
JANESVILLE     PTSUNNY   72  43  35 W20G26    29.82F
$$

WIZ051-052-058>065-066-070>072-292300-
SOUTHEAST WISCONSIN

CITY           SKY/WX    TMP DP  RH WIND       PRES   REMARKS
MILWAUKEE      MOSUNNY   71  45  39 W16G25    29.80S
WAUKESHA       MOSUNNY   66  45  45 W17G28    29.82S
MILWAUKEE/TIMM PTSUNNY   70  41  35 W18G25    29.81S
RACINE         MOSUNNY   71  43  36 W16G28    29.82R
KENOSHA        MOSUNNY   71  46  40 W17G32    29.82R
FOND DU LAC    MOSUNNY   69  43  38 W15G22    29.78R
SHEBOYGAN      CLOUDY    67  49  52 W21G28    29.77S
WEST BEND      MOSUNNY   66  43  42 W14       29.79S
JUNEAU         MOSUNNY   66  44  45 SW17      29.81F
$$

LSZ147-162-292300-
LAKE SUPERIOR

STATION/POSITION TIME  TEMP    WIND        PRES    WAVE
                       AIR SEA DIR/SP/G            HT/PER
                 (UTC) (F)     (DEG/KT/KT) (MB)    (FT/S)
W MID LAKE BUOY  2150   43 38  260/ 16/ 17 1003.9R   3/ 4
DEVILS ISLAND    2200   49     260/ 18/ 20 1005.5R
PORT WING        2040   54     260/ 15/ 20 1006.4S
SAXON HARBOR     2140   58     310/ 14/ 21 1005.4S
$$

LMZ867-665-643>646-292300-
LAKE MICHIGAN

STATION/POSITION TIME  TEMP    WIND        PRES    WAVE
                       AIR SEA DIR/SP/G            HT/PER
                 (UTC) (F)     (DEG/KT/KT) (MB)    (FT/S)
CHAMBERS ISLAND  2140   60     200/  4/ 10 1005.4R
N MID LAKE BUOY  2150   47 41  190/ 16/ 17 1006.0F   2/ 4
NORTHPORT PIER   2200   59     270/  5/ 22 1006.1
KEWAUNEE LAKESHO 2142   66     260/ 17/ 24 1006.9R
SHEBOYGAN LAKESH 2200   67     250/ 14/ 20 1007.4F
PORT WASHINGTON  2148   71     250/ 14/ 27 1009.1F
ATWATER BUOY     2109   65     260/ 17/ 19 1009.1S
MILWAUKEE LAKESH 2150   68     270/ 19/ 28   N/A
S MID LAKE BUOY  2150   55 48  270/  4/  6 1010.2R   2/ 4
KENOSHA   LAKESH 2200   71     260/ 17/ 27 1009.5
$$

TC  - TEMPERATURE IN CELSIUS
VSB - VISIBILITY IN STATUTE MILES
WCI - WIND CHILL INDEX
HX  - HEAT INDEX




USA.gov is the U.S. government's official web portal to all federal, state and local government web resources and services.